This is the latest recevied weather packets stored in our database for station/object KJ6BBX. If no packets are shown the sender has not sent any weather packets the latest 10 day(s).
| Time | Temp. | Humidity | Pressure | Rain* | Wind** | Luminosity | Snow |
|---|---|---|---|---|---|---|---|
| 1777959314 | 13.89° C | 76% | 1006.6 hPa | 0 mm | - | 0 W/m² | - |
| 1777958414 | 13.89° C | 76% | 1006.8 hPa | 0 mm | - | 0 W/m² | - |
| 1777957514 | 13.89° C | 76% | 1007.1 hPa | 0 mm | - | 0 W/m² | - |
| 1777956614 | 14.44° C | 76% | 1007.1 hPa | 0 mm | - | 0 W/m² | - |
| 1777955714 | 14.44° C | 76% | 1007.1 hPa | 0 mm | - | 0 W/m² | - |
| 1777954814 | 14.44° C | 77% | 1007.3 hPa | 0 mm | - | 0 W/m² | - |
| 1777953915 | 14.44° C | 77% | 1006.9 hPa | 0 mm | - | 0 W/m² | - |
| 1777953016 | 14.44° C | 78% | 1007.1 hPa | 0 mm | - | 0 W/m² | - |
| 1777952114 | 14.44° C | 79% | 1006.8 hPa | 0 mm | - | 0 W/m² | - |
| 1777951214 | 15° C | 78% | 1006.5 hPa | 0 mm | - | 0 W/m² | - |
| 1777950314 | 15° C | 78% | 1006.7 hPa | 0 mm | - | 0 W/m² | - |
| 1777949415 | 15.56° C | 76% | 1006.7 hPa | 0 mm | - | 0 W/m² | - |
| 1777948516 | 15.56° C | 73% | 1006.5 hPa | 0 mm | - | 1 W/m² | - |
| 1777947613 | 15.56° C | 71% | 1006.5 hPa | 0 mm | - | 7 W/m² | - |
| 1777946714 | 16.11° C | 69% | 1006.3 hPa | 0 mm | - | 22 W/m² | - |
| 1777945814 | 16.67° C | 69% | 1006.1 hPa | 0 mm | - | 29 W/m² | - |
| 1777944914 | 16.67° C | 68% | 1006.5 hPa | 0 mm | - | 46 W/m² | - |
| 1777944014 | 17.22° C | 69% | 1006.4 hPa | 0 mm | - | 58 W/m² | - |
| 1777943114 | 17.22° C | 68% | 1006.5 hPa | 0 mm | - | 87 W/m² | - |
| 1777942214 | 17.78° C | 68% | 1006.6 hPa | 0 mm | - | 134 W/m² | - |
| 1777941315 | 17.78° C | 66% | 1006.5 hPa | 0 mm | - | 129 W/m² | - |
| 1777940413 | 18.33° C | 64% | 1006.3 hPa | 0 mm | - | 124 W/m² | - |
| 1777939514 | 18.89° C | 64% | 1006.5 hPa | 0 mm | - | 238 W/m² | - |
| 1777938613 | 18.89° C | 64% | 1006.4 hPa | 0 mm | - | 143 W/m² | - |
| 1777937714 | 18.89° C | 63% | 1006.6 hPa | 0 mm | - | 223 W/m² | - |
* Rain since midnight (hover to see other rain measurements)
** Current wind speed in m/s (hover to see current wind gust speed)